STARLINK-30147 (57511 NORAD) Tracking and Keplerian Element Data

This shows tracking and keplerian element data for the satellite.

Feedback or suggestion? Click here.




ElementValue
Catalog57511
NameSTARLINK-30147
Epoch Orbit438
Epoch Day238.91667824
Epoch Year2023
RAAN12.1884
Inclination43.0005
Eccentricity0.0001294
Argument of Perigee259.0365
Mean Anonmoly250.4741
Mean Motion15.51260267
Decay Rate-0.0168693
L11 57511U 23113S 23238.91667824 -.01686930 00000+0 -31381-1 0 9991
L22 57511 43.0005 12.1884 0001294 259.0365 250.4741 15.51260267 4386



Live tracking and technical data element details for STARLINK-30147 (NORAD 57511). STARLINK-30147 can be tracked NOW for your location showing map with azimuth and elevation plus other details from your city location.







IsCatalogInMostPopularTable: catalog: 57511, numindb: 7
Update: records affected: 1



GetName: 57511 STARLINK-30147

Hit Count: updated at: Tue, 26 Sep 2023 11:30:29 GMT